CANX-2

Satellite information

Favourite Embed

Satellite Type and Status

PAYLOADIN ORBIT

Key statistics

Satellite CANX-2 at a glance.

Uptime

6223

Days in orbit

Revolutions

≈ 15.0

Per day

Orbit

SSO

Sun Synchronous Orbit

Inclination

97.8

Latest

Satellite identification and parameters

Extended collection of information and parameters for CANX-2.

Object identification

Identified? True

Debris? False

Object name: CANX-2

International designator: 2008-021H

Object number (NORAD): 32790

Object ID (CCSDS): 32790

Country: CANADA (CA)

Current information (Y/N): Y

RCS size: SMALL

Orbital parameters

Period: 95.904 minutes

Inclination: 97.8214 deg

SMA: 6940.39 km

Apoapsis: 570.667 km

Periapsis: 553.843 km

RAAN: 101.3763 deg

Eccentricy: 0.001212

Argument of periapsis: 310.1569 deg

Mean anomaly: 49.8593 deg

Mean motion: 15.01505585 rev/day

Mean motion (dot): 0.00004617 rev/day2

B* drag term: 0.00036118 1/REarth

Two-line elements (TLE)

Creation date: May 12, 2025, 2:31 a.m.

Reference frame: TEME

Reference center: EARTH

Epoch: May 11, 2025, 8:22 p.m. UTC

TLE line 0: 0 CANX-2

TLE line 1: 1 32790U 08021H 25131.84911383 .00004617 00000-0 36118-3 0 9991

TLE line 2: 2 32790 97.8214 101.3763 0012120 310.1569 49.8593 15.01505585924509

Live tracking on map

Real-time ground track for satellite CANX-2.

In-orbit conjunctions

There are no conjunctions computed for CANX-2, at the moment. Check back to stay up to date, as we update our databases every day.

Go to all conjunctions

Associated space launch

Indian Earth observation satellite. Launched alongside 9 nanosatellites.

CANX-2 was lifted into orbit during the mission ‘PSLV | Cartosat 2A’, on board a PSLV space rocket.

The launch took place on April 28, 2008, 3:53 a.m. from Satish Dhawan Space Centre Second Launch Pad.

For more information about the launch, click the button.

Launch to space PSLV | Cartosat 2A
PSLV | Cartosat 2A

Agency: N/A

Status: Launch Successful

Launch date: April 28, 2008, 3:53 a.m. UTC

Rocket: PSLV

Launch pad: Satish Dhawan Space Centre Second Launch Pad

Location: Satish Dhawan Space Centre, India

...

Latest news about this satellite

There are no fresh news available about this satellite. Check back as we update our databases every day.


Newsletter sign-up

Weekly statistics, charts and insights to help you stay on top of the space industry.